SQ3X-13 Weather Reports


Display with metric or nautical units.
time (UTC)temp
F
wind
direction
speed
MPH
gust
MPH
rain 1hr
in
rain 24hr
in
rain mn
in
humidity
%
barometer
mb
20260905122002 68 271 17.0 120.0 0.00 0.00 0.00 5 1009.9
20260905121002 68 271 17.0 75.0 0.00 0.00 0.00 5 1009.9
20260905120003 68 271 17.0 75.0 0.00 0.00 0.00 5 1009.9
20260905115002 66 271 17.0 47.0 0.00 0.00 0.00 5 1009.9
20260905114002 66 271 17.0 120.0 0.00 0.00 0.00 5 1009.9
20260905113003 66 271 17.0 120.0 0.00 0.00 0.00 5 1010.2
20260905112002 66 271 17.0 120.0 0.00 0.00 0.00 5 1010.2
20260905111003 66 271 17.0 120.0 0.00 0.00 0.00 5 1010.2
20260905110002 66 271 17.0 120.0 0.00 0.00 0.00 5 1010.2
20260905105003 65 270 16.0 120.0 0.00 0.00 0.00 6 1010.3
20260905104001 65 270 16.0 120.0 0.00 0.00 0.00 6 1010.3
20260905103003 65 270 16.0 748.0 0.00 0.00 0.00 6 1010.3
20260905102002 65 270 16.0 465.0 0.00 0.00 0.00 6 691.6
20260905101003 65 270 16.0 289.0 0.00 0.00 0.00 6 1010.0
20260905100003 65 270 16.0 289.0 0.00 0.00 0.00 6 1010.0
20260905095003 63 269 16.0 180.0 0.00 0.00 0.00 6 1010.0
20260905094002 63 269 16.0 112.0 0.00 0.00 0.00 6 1010.0
20260905093002 63 269 16.0 70.0 0.00 0.00 0.00 6 1010.1
20260905092003 63 269 16.0 70.0 0.00 0.00 0.00 6 1010.1
20260905091003 63 269 16.0 44.0 0.00 0.00 0.00 6 1010.1
20260905090003 63 269 16.0 123.0 0.00 0.00 0.00 6 1010.0
20260905085001 62 263 15.0 123.0 0.00 0.00 0.00 7 1009.5
20260905084003 62 263 15.0 123.0 0.00 0.00 0.00 7 1009.5
20260905083003 62 263 15.0 123.0 0.00 0.00 0.00 7 1009.5
20260905082002 62 263 15.0 123.0 0.00 0.00 0.00 7 1009.5
20260905081003 62 263 15.0 123.0 0.00 0.00 0.00 7 1008.4
20260905080003 62 263 15.0 123.0 0.00 0.00 0.00 7 1008.4
20260905075002 60 265 13.0 767.0 0.00 0.00 0.00 8 1008.4
20260905074003 60 265 13.0 767.0 0.00 0.00 0.00 8 1008.4
20260905073001 60 265 13.0 477.0 0.00 0.00 0.00 8 1008.4
20260905072002 60 265 13.0 297.0 0.00 0.00 0.00 8 1008.4
20260905071003 60 265 13.0 297.0 0.00 0.00 0.00 8 1008.4
20260905070003 60 265 13.0 185.0 0.00 0.00 0.00 8 1008.4
20260905065003 59 262 13.0 185.0 0.00 0.00 0.00 8 1008.4
20260905064001 59 262 13.0 115.0 0.00 0.00 0.00 8 1008.4
20260905063002 59 262 13.0 115.0 0.00 0.00 0.00 8 1008.4
20260905062003 59 262 13.0 72.0 0.00 0.00 0.00 8 1008.4
20260905061003 59 262 13.0 45.0 0.00 0.00 0.00 8 1008.4
20260905060003 59 262 13.0 45.0 0.00 0.00 0.00 8 1008.4
20260905055003 59 265 12.0 128.0 0.00 0.00 0.00 8 1008.4
20260905054002 59 265 12.0 128.0 0.00 0.00 0.00 8 1008.0
20260905053003 59 265 12.0 128.0 0.00 0.00 0.00 8 1008.0
20260905052002 59 265 12.0 128.0 0.00 0.00 0.00 8 1008.0
20260905051002 59 265 12.0 128.0 0.00 0.00 0.00 8 1007.9
20260905050004 59 265 12.0 128.0 0.00 0.00 0.00 8 1007.8
20260905045001 60 271 12.0 128.0 0.00 0.00 0.00 8 1007.8
20260905044002 60 271 12.0 801.0 0.00 0.00 0.00 8 1007.3
20260905043002 60 271 12.0 801.0 0.00 0.00 0.00 8 1007.3
20260905042002 60 271 12.0 498.0 0.00 0.00 0.00 8 1007.3
20260905041001 60 271 12.0 310.0 0.00 0.00 0.00 8 1007.3
20260905040002 60 271 12.0 193.0 0.00 0.00 0.00 8 1007.1
20260905035003 61 269 13.0 120.0 0.00 0.00 0.00 8 1007.1
20260905034003 61 269 13.0 120.0 0.00 0.00 0.00 8 1007.1
20260905033002 61 269 13.0 75.0 0.00 0.00 0.00 8 1006.6
20260905032002 61 269 13.0 47.0 0.00 0.00 0.00 8 1006.6
20260905031002 61 269 13.0 47.0 0.00 0.00 0.00 8 1006.6
20260905030002 61 269 13.0 136.0 0.00 0.00 0.00 8 1006.5
20260905025003 62 268 14.0 136.0 0.00 0.00 0.00 8 1006.2
20260905024002 62 268 14.0 136.0 0.00 0.00 0.00 8 1006.0
20260905023002 62 268 14.0 136.0 0.00 0.00 0.00 8 1006.0
20260905022003 62 268 14.0 136.0 0.00 0.00 0.00 8 1005.8
20260905021002 62 268 14.0 136.0 0.00 0.00 0.00 8 723.4
20260905020003 62 268 14.0 136.0 0.00 0.00 0.00 8 1005.6
20260905015002 63 270 15.0 136.0 0.00 0.00 0.00 8 1005.4
20260905014002 63 270 15.0 851.0 0.00 0.00 0.00 8 1005.1
20260905013002 63 270 15.0 529.0 0.00 0.00 0.00 8 1005.2
20260905012003 63 270 15.0 529.0 0.00 0.00 0.00 8 1005.1
20260905011002 63 270 15.0 329.0 0.00 0.00 0.00 8 1005.0
20260905010002 63 270 15.0 205.0 0.00 0.00 0.00 8 1005.1
20260905005002 63 262 14.0 128.0 0.00 0.00 0.00 8 1005.3
20260905004002 63 262 14.0 80.0 0.00 0.00 0.00 8 1005.3
20260905003005 63 262 14.0 50.0 0.00 0.00 0.00 8 1004.8
20260905002002 63 262 14.0 50.0 0.00 0.00 0.00 8 1004.5
20260905001002 63 262 14.0 156.0 0.00 0.00 0.00 8 1004.7
20260905000002 63 262 14.0 156.0 0.00 0.00 0.00 8 1004.7
20260904235002 64 261 15.0 156.0 0.00 0.00 0.00 7 1004.6
20260904234002 64 261 15.0 156.0 0.00 0.00 0.00 7 1004.7
20260904233002 64 261 15.0 156.0 0.00 0.00 0.00 7 1004.7
20260904232002 64 261 15.0 156.0 0.00 0.00 0.00 7 1004.5
20260904231002 64 261 15.0 156.0 0.00 0.00 0.00 7 1004.4
20260904230002 64 261 15.0 156.0 0.00 0.00 0.00 7 1003.8
20260904225002 64 257 15.0 973.0 0.00 0.00 0.00 7 1003.5
20260904224001 64 257 15.0 973.0 0.00 0.00 0.00 7 1003.8
20260904223003 64 257 15.0 605.0 0.00 0.00 0.00 7 1003.9
20260904222002 64 257 15.0 376.0 0.00 0.00 0.00 7 1003.7
20260904221002 64 257 15.0 376.0 0.00 0.00 0.00 7 1003.9
20260904220002 64 257 15.0 234.0 0.00 0.00 0.00 7 1003.6
20260904215002 65 254 14.0 234.0 0.00 0.00 0.00 8 1003.3
20260904214002 65 254 14.0 146.0 0.00 0.00 0.00 8 1003.2
20260904213002 65 254 14.0 146.0 0.00 0.00 0.00 8 1003.2
20260904212003 65 254 14.0 91.0 0.00 0.00 0.00 8 1003.2
20260904211002 65 254 14.0 91.0 0.00 0.00 0.00 8 1002.8
20260904210004 65 254 14.0 57.0 0.00 0.00 0.00 8 1001.8
20260904205003 66 266 14.0 101.0 0.00 0.00 0.00 8 1002.0
20260904204003 66 266 14.0 101.0 0.00 0.00 0.00 8 1002.5
20260904203002 66 266 14.0 101.0 0.00 0.00 0.00 8 1002.4
20260904202003 66 266 14.0 101.0 0.00 0.00 0.00 8 1002.5
20260904201002 66 266 14.0 101.0 0.00 0.00 0.00 8 1002.3
20260904200003 66 266 14.0 101.0 0.00 0.00 0.00 8 1002.4
20260904195002 66 268 16.0 101.0 0.00 0.00 0.00 9 1002.6
20260904194003 66 268 16.0 629.0 0.00 0.00 0.00 9 1002.6
20260904193002 66 268 16.0 629.0 0.00 0.00 0.00 9 1002.2
20260904192002 66 268 16.0 391.0 0.00 0.00 0.00 9 1001.7
20260904191002 66 268 16.0 391.0 0.00 0.00 0.00 9 1002.1
20260904190002 66 268 16.0 243.0 0.00 0.00 0.00 9 1002.5
20260904185002 66 276 18.0 243.0 0.00 0.00 0.00 9 1002.5
20260904184003 66 276 18.0 151.0 0.00 0.00 0.00 9 1002.2
20260904183002 66 276 18.0 151.0 0.00 0.00 0.00 9 1002.1
20260904182003 66 276 18.0 94.0 0.00 0.00 0.00 9 1001.9
20260904181002 66 276 18.0 94.0 0.00 0.00 0.00 9 1002.0
20260904180002 66 276 18.0 59.0 0.00 0.00 0.00 9 1001.6
20260904175002 75 238 16.0 59.0 0.00 0.00 0.00 6 1001.1
20260904174002 75 238 16.0 59.0 0.00 0.00 0.00 6 1000.7
20260904173002 75 238 16.0 286.0 0.00 0.00 0.00 6 999.1
20260904172002 75 238 16.0 178.0 0.00 0.00 0.00 6 999.1
20260904171002 75 238 16.0 178.0 0.00 0.00 0.00 6 999.2
20260904170003 75 238 16.0 111.0 0.00 0.00 0.00 6 999.5
20260904165002 76 226 14.0 69.0 0.00 0.00 0.00 6 999.7
20260904164002 76 226 14.0 69.0 0.00 0.00 0.00 6 999.8
20260904163002 76 226 14.0 101.0 0.00 0.00 0.00 6 999.9
20260904162002 76 226 14.0 101.0 0.00 0.00 0.00 6 1000.2
20260904161002 76 226 14.0 101.0 0.00 0.00 0.00 6 1000.3
20260904160002 76 226 14.0 101.0 0.00 0.00 0.00 6 1000.2
20260904155003 75 232 14.0 101.0 0.00 0.00 0.00 6 1000.3
20260904154003 75 232 14.0 101.0 0.00 0.00 0.00 6 1000.5
20260904153003 75 232 14.0 101.0 0.00 0.00 0.00 6 1000.5
20260904152002 75 232 14.0 629.0 0.00 0.00 0.00 6 1001.0
20260904151002 75 232 14.0 629.0 0.00 0.00 0.00 6 1001.0
20260904150002 75 232 14.0 391.0 0.00 0.00 0.00 6 1001.0
20260904145003 74 223 14.0 243.0 0.00 0.00 0.00 6 1001.2
20260904144002 74 223 14.0 151.0 0.00 0.00 0.00 6 1001.2
20260904143003 74 223 14.0 94.0 0.00 0.00 0.00 6 1001.5
20260904142003 74 223 14.0 59.0 0.00 0.00 0.00 6 1001.4
20260904141002 74 223 14.0 59.0 0.00 0.00 0.00 6 1001.6
20260904140002 74 223 14.0 123.0 0.00 0.00 0.00 6 1002.3
20260904135002 73 235 16.0 123.0 0.00 0.00 0.00 6 1002.5
20260904134002 73 235 16.0 123.0 0.00 0.00 0.00 6 1002.5
20260904133002 73 235 16.0 123.0 0.00 0.00 0.00 6 1003.1
20260904132002 73 235 16.0 123.0 0.00 0.00 0.00 6 1003.1
20260904131002 73 235 16.0 123.0 0.00 0.00 0.00 6 1004.3
20260904130002 73 235 16.0 123.0 0.00 0.00 0.00 6 1004.3
20260904125003 71 234 14.0 123.0 0.00 0.00 0.00 6 1004.3
20260904124002 71 234 14.0 767.0 0.00 0.00 0.00 6 1004.3
20260904123002 71 234 14.0 477.0 0.00 0.00 0.00 6 1004.3